伽利略0207星导航星座 (GSAT0207 (GALILEO 15))

导读 | 星芒AI

GSAT0207,也称为GALILEO 15,是欧洲伽利略卫星导航系统的一部分。该卫星由空客防务与航天公司制造,于2022年发射,旨在增强全球定位精度和可靠性。作为伽利略计划的补充卫星,GALILEO 15 提供民用和军用导航服务,支持欧洲在独立卫星导航系统上的战略目标。其运行轨道为中地球轨道,设计寿命约12至15年。

基本信息
目录编号:
41859
目录名称:
GALILEO 15 (267)
国际标识:
2016-069A
轨道中心:
EARTH
卫星名称:
伽利略0207星
卫星全名:
伽利略0207星导航星座 (GSAT0207 (GALILEO 15))
卫星状态:
在轨 (已飞行3257 天)
发射日期:
2016-11-17 UTC
国别 :
(ESA)
星等 :
--
轨道信息
数据来源 国际轨道数据
星历时间: 2025-10-14T21:17:19+0800
3天前
查看轨道信息
半长轴: 29600.321km
偏心率: 0.0002204
轨道倾角: 55.345°
近地点辐角 348.352°
升交点赤经 107.889°
平近点角 11.688°
近地点: 23215.662km
远地点: 23228.71km
周期: 844.704分钟
每日圈数: 1.70474
详细信息
平衡模式:
三轴稳定
覆盖范围:
全球
运营商:
欧盟空间计划局
运营商所在国:
法国大都会
使用方式:
暂无
卫星简介
伽利略定位系统(Galileo)是一个全球导航卫星系统,于2016年投入使用由欧盟通过ESA创建,由欧盟空间计划局(EUSPA)运营。该系统有两个地面操控站,并且在高纬度地区提供比其他系统更好的定位服务。该卫星仍在工作。
2D轨道图
3D轨道图
轨道高度分析图
轨道倾角分析图
轨道综合分析图
查看轨道综合分析图